Weather in Churki

Russia / Jewish Autonomous Oblast     48°04′39″N   132°39′54″E
temp.,
°C
wind,
m/s
gust,
m/s
humid.,
%
clouds,
%
prec.,
mm/h
press.,
hPa
HPBL,
m
16 may, sun
sun1601:00+11wsw515671 0.0 1002407
04:00+9wsw4137385 0.0 1003358
07:00+10sw4127379 0.0 1003393
10:00+16wsw585290 0.0 1003698
13:00+20w6933100 0.0 10022499
16:00+21w5929100 0.0 10012984
19:00+19w1246100 0.0 100121
22:00+14ne11531 0.0 100211
17 may, mon
mon1701:00+12ssw11520 0.0 100110
04:00+11ssw22610 0.0 100112
07:00+12ssw24655 0.0 100194
10:00+18sw46450 0.0 1001625
13:00+22wsw46340 0.0 10001524
16:00+24w58278 0.0 9993094
19:00+22sw374598 0.0 999215
22:00+16wnw22616 0.0 100011
18 may, tue
tue1801:00+14ssw22655 0.0 100022
04:00+13ssw3472100 0.0 100054
07:00+14s315695 0.0 1000435
10:00+22ssw7144298 0.0 999879
13:00+27sw814295 0.0 9971947
16:00+28sw914296 0.0 9962708
19:00+25sw7153697 0.0 996660
22:00+17nnw356150 0.0 1000121
19 may, wed
wed1901:00+14nw22605 0.0 100218
04:00+14w1163100 0.1 100421
07:00+14wnw12655 0.0 100775
10:00+19nw22385 0.0 10081164
13:00+21w45304 0.0 10082545
16:00+22wsw4627100 0.0 10072521
19:00+21ssw2438100 0.0 1007131
22:00+15se224391 0.0 100813
20 may, thu
thu2001:00+14se2246100 0.0 100829
04:00+13sse2567100 0.0 1007117
07:00+14ssw21186100 0.3 1006437
10:00+18ssw4872100 0.5 1004721
13:00+24sw7114743 0.0 10031450
16:00+27wsw812400 0.0 10011969
19:00+26sw7134219 0.0 1001702
22:00+15ne349211 0.1 100475